Angel Fire, NM

3:19 AM MDT on April 24, 2018 (GMT -0600)
Angel Fire

Weather History for KAXX - March, 2014

Change the Weather History Date:

Wednesday, March 12, 2014

  Actual Average (KSKX) Record (KSKX)
Temperature  
Mean Temperature 26 °F -  
Max Temperature 43 °F 50 °F 66 °F (2007)
Min Temperature 9 °F 20 °F 15 °F (1998)
Degree Days  
Heating Degree Days 39    
Moisture  
Dew Point 10 °F    
Average Humidity 53    
Maximum Humidity 87    
Minimum Humidity 22    
Precipitation  
Precipitation 0.00 in - - ()
Sea Level Pressure  
Sea Level Pressure 30.27 in    
Wind  
Wind Speed 7 mph (SW)    
Max Wind Speed 16 mph    
Max Gust Speed 21 mph    
Visibility 10 miles    
Events      
Averages and records for this station are not official NWS values.
T = Trace of Precipitation, MM = Missing Value Source: NWS Daily Summary

Daily Weather History Graph

Daily Weather History Graph

Search for Another Location

Airport or City:

Astronomy

Mar. 12, 2014 Rise Set
Actual Time 7:16 AM MDT 7:05 PM MDT
Civil Twilight 6:50 AM MDT 7:31 PM MDT
Nautical Twilight 6:20 AM MDT 8:01 PM MDT
Astronomical Twilight 5:50 AM MDT 8:31 PM MDT
Moon 3:43 PM MDT (3/12) 4:44 AM MDT (3/12)
Length of Visible Light 12h 41m
Length of Day
11h 49m
Waxing Gibbous, 86% of the Moon is Illuminated
Mar 12
Waxing Gibbous
Mar 16
Full
Mar 23
Last Quarter
Mar 30
New
Apr 7
First Quarter

Hourly Weather History & Observations

Time (MDT) Temp. Windchill Dew Point Humidity Pressure Visibility Wind Dir Wind Speed Gust Speed Precip Events Conditions
12:15 AM 22.8 °F 9.4 °F 9.9 °F 58% 30.23 in 10.0 mi NE 16.1 mph - N/A   Clear
12:35 AM 22.1 °F 8.9 °F 10.4 °F 61% 30.23 in 10.0 mi NE 15.0 mph 20.7 mph N/A   Clear
12:55 AM 21.6 °F 9.9 °F 10.4 °F 62% 30.24 in 10.0 mi NE 11.5 mph - N/A   Clear
1:15 AM 20.8 °F 9.0 °F 10.4 °F 64% 30.24 in 10.0 mi NE 11.5 mph 16.1 mph N/A   Clear
1:35 AM 20.5 °F 9.2 °F 10.8 °F 66% 30.24 in 10.0 mi NE 10.4 mph - N/A   Clear
1:55 AM 20.3 °F 9.8 °F 9.9 °F 64% 30.25 in 10.0 mi North 9.2 mph - N/A   Clear
2:15 AM 19.6 °F 11.7 °F 9.7 °F 65% 30.25 in 10.0 mi NNE 5.8 mph - N/A   Clear
2:35 AM 19.9 °F 10.1 °F 10.4 °F 67% 30.25 in 10.0 mi North 8.1 mph - N/A   Clear
2:55 AM 18.1 °F 10.0 °F 11.3 °F 75% 30.24 in 10.0 mi NNW 5.8 mph - N/A   Clear
3:15 AM 17.6 °F 12.3 °F 11.5 °F 77% 30.24 in 10.0 mi NNW 3.5 mph - N/A   Clear
3:35 AM 14.7 °F - 9.1 °F 79% 30.24 in 10.0 mi Calm Calm - N/A   Clear
3:55 AM 14.9 °F 9.2 °F 9.1 °F 78% 30.24 in 10.0 mi ESE 3.5 mph - N/A   Clear
4:15 AM 13.8 °F - 8.6 °F 80% 30.23 in 10.0 mi Calm Calm - N/A   Clear
4:35 AM 13.6 °F 4.6 °F 8.4 °F 80% 30.24 in 10.0 mi SSE 5.8 mph - N/A   Clear
4:55 AM 13.6 °F 6.0 °F 8.8 °F 81% 30.25 in 10.0 mi SSE 4.6 mph - N/A   Clear
5:15 AM 12.2 °F 6.1 °F 8.4 °F 85% 30.25 in 10.0 mi SSE 3.5 mph - N/A   Clear
5:35 AM 11.8 °F - 8.4 °F 86% 30.26 in 10.0 mi Calm Calm - N/A   Clear
5:55 AM 11.8 °F - 8.2 °F 85% 30.27 in 10.0 mi Calm Calm - N/A   Clear
6:15 AM 12.4 °F - 8.2 °F 83% 30.27 in 10.0 mi Calm Calm - N/A   Clear
6:35 AM 10.2 °F - 6.1 °F 83% 30.27 in 10.0 mi Calm Calm - N/A   Clear
6:55 AM 10.8 °F - 7.3 °F 86% 30.28 in 10.0 mi Calm Calm - N/A   Clear
7:15 AM 9.5 °F 3.0 °F 5.7 °F 85% 30.28 in 10.0 mi SSE 3.5 mph - N/A   Clear
7:35 AM 9.3 °F - 5.9 °F 86% 30.28 in 10.0 mi Calm Calm - N/A   Clear
7:55 AM 10.4 °F - 7.2 °F 87% 30.30 in 10.0 mi Calm Calm - N/A   Clear
8:15 AM 14.0 °F - 10.2 °F 85% 30.30 in 10.0 mi Calm Calm - N/A   Clear
8:35 AM 16.5 °F - 11.3 °F 80% 30.31 in 10.0 mi Calm Calm - N/A   Clear
8:55 AM 18.1 °F - 12.2 °F 78% 30.31 in 10.0 mi Calm Calm - N/A   Clear
9:15 AM 20.1 °F 12.3 °F 12.6 °F 73% 30.32 in 10.0 mi NNE 5.8 mph - N/A   Clear
9:35 AM 23.2 °F - 13.5 °F 66% 30.33 in 10.0 mi Calm Calm - N/A   Clear
9:55 AM 26.4 °F - 11.3 °F 53% 30.33 in 10.0 mi Calm Calm - N/A   Clear
10:15 AM 28.9 °F - 12.2 °F 50% 30.33 in 10.0 mi Calm Calm - N/A   Clear
10:35 AM 30.0 °F - 12.0 °F 47% 30.32 in 10.0 mi Calm Calm - N/A   Clear
10:55 AM 32.0 °F 28.7 °F 12.2 °F 44% 30.33 in 10.0 mi East 3.5 mph - N/A   Clear
11:15 AM 33.1 °F - 11.7 °F 41% 30.33 in 10.0 mi Calm Calm - N/A   Clear
11:35 AM 34.9 °F 30.8 °F 10.8 °F 37% 30.32 in 10.0 mi South 4.6 mph - N/A   Clear
12:20 PM 37.2 °F - 10.0 °F 33% 30.31 in 10.0 mi Calm Calm - N/A   Clear
12:35 PM 37.8 °F 33.3 °F 10.0 °F 32% 30.30 in 10.0 mi West 5.8 mph - N/A   Clear
12:55 PM 39.0 °F 36.8 °F 8.6 °F 29% 30.30 in 10.0 mi North 3.5 mph - N/A   Clear
1:15 PM 39.2 °F 37.0 °F 6.8 °F 26% 30.29 in 10.0 mi SW 3.5 mph - N/A   Clear
1:35 PM 41.2 °F 39.2 °F 5.9 °F 23% 30.28 in 10.0 mi East 3.5 mph - N/A   Clear
1:55 PM 40.5 °F - 7.5 °F 26% 30.27 in 10.0 mi Calm Calm - N/A   Clear
2:15 PM 43.3 °F 38.6 °F 9.7 °F 25% 30.27 in 10.0 mi SW 8.1 mph - N/A   Clear
2:35 PM 42.6 °F 37.8 °F 9.1 °F 25% 30.26 in 10.0 mi WSW 8.1 mph - N/A   Clear
2:55 PM 41.9 °F 36.3 °F 8.2 °F 25% 30.25 in 10.0 mi West 9.2 mph - N/A   Clear
3:20 PM 42.4 °F 36.5 °F 9.1 °F 26% 30.25 in 10.0 mi West 10.4 mph 16.1 mph N/A   Clear
3:35 PM 42.8 °F 38.0 °F 9.0 °F 25% 30.25 in 10.0 mi WNW 8.1 mph - N/A   Clear
3:55 PM 43.5 °F 38.3 °F 10.4 °F 26% 30.25 in 10.0 mi West 9.2 mph - N/A   Clear
4:15 PM 43.2 °F 39.0 °F 9.1 °F 25% 30.25 in 10.0 mi West 6.9 mph - N/A   Clear
4:35 PM 43.2 °F 37.9 °F 9.1 °F 25% 30.24 in 10.0 mi West 9.2 mph - N/A   Clear
4:55 PM 43.2 °F 37.9 °F 9.0 °F 25% 30.24 in 10.0 mi West 9.2 mph - N/A   Clear
5:15 PM 42.6 °F 36.3 °F 7.2 °F 23% 30.24 in 10.0 mi WSW 11.5 mph - N/A   Clear
5:35 PM 42.1 °F 35.7 °F 6.6 °F 23% 30.24 in 10.0 mi WSW 11.5 mph - N/A   Clear
5:55 PM 41.7 °F 36.1 °F 5.5 °F 22% 30.24 in 10.0 mi West 9.2 mph - N/A   Clear
6:15 PM 40.6 °F 34.3 °F 5.7 °F 24% 30.25 in 10.0 mi WSW 10.4 mph - N/A   Clear
6:35 PM 39.2 °F 33.6 °F 6.6 °F 26% 30.25 in 10.0 mi West 8.1 mph - N/A   Clear
6:55 PM 36.0 °F 28.5 °F 6.6 °F 29% 30.25 in 10.0 mi West 10.4 mph - N/A   Clear
7:15 PM 34.7 °F 27.5 °F 6.6 °F 31% 30.26 in 10.0 mi WSW 9.2 mph - N/A   Clear
7:40 PM 32.2 °F 25.0 °F 5.9 °F 33% 30.27 in 10.0 mi SE 8.1 mph - N/A   Clear
7:55 PM 30.9 °F 24.3 °F 9.0 °F 40% 30.27 in 10.0 mi SSE 6.9 mph - N/A   Clear
8:15 PM 28.9 °F 21.9 °F 10.9 °F 47% 30.28 in 10.0 mi SSE 6.9 mph - N/A   Clear
8:35 PM 28.4 °F 22.2 °F 10.9 °F 48% 30.29 in 10.0 mi South 5.8 mph - N/A   Clear
8:55 PM 27.1 °F 18.9 °F 11.3 °F 51% 30.29 in 10.0 mi SSW 8.1 mph - N/A   Clear
9:15 PM 28.9 °F 20.4 °F 12.0 °F 49% 30.29 in 10.0 mi SW 9.2 mph - N/A   Clear
9:35 PM 27.9 °F 17.8 °F 12.7 °F 53% 30.29 in 10.0 mi SSW 11.5 mph - N/A   Clear
9:55 PM 26.4 °F 16.6 °F 12.6 °F 56% 30.30 in 10.0 mi South 10.4 mph - N/A   Clear
10:15 PM 25.0 °F 17.1 °F 12.2 °F 58% 30.30 in 10.0 mi SE 6.9 mph - N/A   Clear
10:35 PM 25.2 °F 18.3 °F 12.6 °F 59% 30.30 in 10.0 mi SSE 5.8 mph - N/A   Clear
10:55 PM 24.8 °F 17.9 °F 12.4 °F 59% 30.30 in 10.0 mi South 5.8 mph - N/A   Clear
11:15 PM 23.7 °F 17.8 °F 11.7 °F 60% 30.30 in 10.0 mi SSE 4.6 mph - N/A   Clear
11:35 PM 23.2 °F 18.7 °F 11.3 °F 60% 30.30 in 10.0 mi NNE 3.5 mph - N/A   Clear
11:55 PM 19.8 °F - 11.3 °F 70% 30.30 in 10.0 mi Calm Calm - N/A   Clear